Stations météo

réclame
Mon MeteoGroup
Konstanz, Allemagne (10929): Température de l'air & dewpoint: 21.05.2018 07:00:00 - 27.05.2018 07:00:00 (CEST)Konstanz, Allemagne (10929): Température de l'air 5cm & Température de l'air -5cm: 21.05.2018 07:00:00 - 27.05.2018 07:00:00 (CEST)Konstanz, Allemagne (10929): Température de l'air -20cm & Température de l'air -100cm: 21.05.2018 07:00:00 - 27.05.2018 07:00:00 (CEST)Konstanz, Allemagne (10929): Vitesse du vent & gusts: 21.05.2018 07:00:00 - 27.05.2018 07:00:00 (CEST)Konstanz, Allemagne (10929): Direction du vent: 21.05.2018 07:00:00 - 27.05.2018 07:00:00 (CEST)Konstanz, Allemagne (10929): reduced air pressure: 21.05.2018 07:00:00 - 27.05.2018 07:00:00 (CEST)Konstanz, Allemagne (10929): visibility: 21.05.2018 07:00:00 - 27.05.2018 07:00:00 (CEST)Konstanz, Allemagne (10929): Ensoleillement: 21.05.2018 07:00:00 - 27.05.2018 07:00:00 (CEST)Konstanz, Allemagne (10929): Quantités de précipitations: 21.05.2018 07:00:00 - 27.05.2018 07:00:00 (CEST)
Date & Time tt [°C] td [°C] tt 5cm [°C] tt -5cm [°C] tt -20cm [°C] tt -100cm [°C] ff [km/h] ff [knt] fx [km/h] fx [knt] dd ppp [hPa] vv [km] sd [min] rr [mm]
27.05.2018 07:00:00 17,7 13,9 17,0 20,4 22,2 16,7 6 3 9 5 NNE 1017,6 47 0 0,0
27.05.2018 06:00:00 17,7 14,7 17,3 20,7 22,5 16,7 7 4 10 6 N 1017,6 40 0 0,0
27.05.2018 05:00:00 18,1 15,6 17,7 21,1 22,8 16,7 6 3 9 5 NNE 1017,6 32 0 0,0
27.05.2018 04:00:00 18,1 15,3 17,4 21,4 23,1 16,6 4 2 10 5 N 1018,1 43 0 0,0
27.05.2018 03:00:00 18,8 15,3 17,9 21,9 23,4 16,6 5 3 10 5 N 1018,3 46 0 0,0
27.05.2018 02:00:00 19,3 14,8 18,7 22,4 23,8 16,6 5 3 11 6 NE 1018,9 51 0 0,0
27.05.2018 01:00:00 20,2 14,4 19,3 22,9 24,2 16,6 6 3 14 8 W 1019,4 30 0 0,0
27.05.2018 00:00:00 20,4 14,2 18,9 23,5 24,6 16,6 5 3 10 5 NNE 1019,4 62 0 0,0
26.05.2018 23:00:00 21,2 14,2 19,7 24,4 25,0 16,6 5 3 11 6 NNE 1019,3 70 0 0,0
26.05.2018 22:00:00 22,2 14,6 20,8 25,5 25,4 16,5 7 4 11 6 NNE 1018,6 69 0 0,0
26.05.2018 21:00:00 23,4 14,7 21,7 27,0 25,6 16,5 6 3 10 5 NNE 1017,6 69 5 0,0
26.05.2018 20:00:00 25,1 14,3 24,5 28,9 25,6 16,5 6 3 14 8 NNE 1017,4 70 52 0,0
26.05.2018 19:00:00 27,6 13,4 28,7 30,5 25,5 16,5 8 4 15 8 N 1016,6 62 46 0,0
26.05.2018 18:00:00 27,6 13,5 28,7 30,8 25,3 16,5 5 3 13 7 NNW 1016,6 70 23 0,0
26.05.2018 17:00:00 27,0 12,3 28,7 31,3 24,9 16,5 7 4 14 8 NW 1016,7 70 6 0,0
26.05.2018 16:00:00 28,0 7,2 30,4 33,5 24,2 16,4 6 4 11 6 NNE 1016,8 52 60 0,0
26.05.2018 15:00:00 28,1 10,9 31,9 32,8 23,3 16,4 5 3 11 6 NNE 1016,9 40 60 0,0
26.05.2018 14:00:00 26,0 12,7 31,2 31,5 22,3 16,4 5 3 11 6 S 1017,4 36 60 0,0
26.05.2018 13:00:00 24,8 13,1 30,9 29,5 21,5 16,4 6 4 12 7 S 1017,8 51 60 0,0
26.05.2018 12:00:00 22,5 12,7 27,5 26,6 20,8 16,4 6 3 13 7 S 1018,2 40 60 0,0
26.05.2018 11:00:00 21,6 12,0 26,3 24,0 20,3 16,3 6 3 11 6 S 1018,3 42 60 0,0
26.05.2018 10:00:00 19,9 12,3 23,4 21,0 20,2 16,3 6 3 12 7 S 1018,4 46 60 0,0
26.05.2018 09:00:00 19,0 11,3 18,2 18,5 20,4 16,3 7 4 13 7 E 1018,7 38 60 0,0
26.05.2018 08:00:00 16,8 13,7 16,3 18,4 20,6 16,3 3 2 6 3 N 1018,7 26 40 0,0
26.05.2018 07:00:00 15,8 13,3 15,3 18,2 20,9 16,2 3 2 9 5 NNW 1018,7 37 50 0,0
26.05.2018 06:00:00 14,5 12,3 13,2 18,2 21,3 16,2 5 3 8 5 WNW 1018,4 33 0 0,0
26.05.2018 05:00:00 15,0 13,0 13,7 18,7 21,7 16,2 7 4 11 6 N 1017,9 41 0 0,0
26.05.2018 04:00:00 15,4 12,5 14,0 19,2 22,1 16,2 5 3 10 5 N 1017,8 59 0 0,0
26.05.2018 03:00:00 16,3 12,6 14,0 19,9 22,6 16,2 5 3 8 5 NNE 1017,8 69 0 0,0
26.05.2018 02:00:00 17,1 12,4 14,8 20,6 23,0 16,1 5 3 7 4 NNE 1017,6 70 0 0,0
26.05.2018 01:00:00 17,9 12,2 15,5 21,5 23,5 16,1 5 3 12 6 N 1017,6 70 0 0,0
26.05.2018 00:00:00 19,0 12,1 17,1 22,4 24,0 16,1 7 4 17 9 N 1017,2 70 0 0,0
25.05.2018 23:00:00 20,2 11,7 18,5 23,4 24,5 16,1 6 4 18 10 NE 1016,9 70 0 0,0
25.05.2018 22:00:00 21,4 11,6 20,3 24,7 24,9 16,1 10 6 20 11 NE 1016,6 70 0 0,0
25.05.2018 21:00:00 21,9 8,7 20,3 26,4 25,2 16,1 9 5 13 7 N 1015,9 70 36 0,0
25.05.2018 20:00:00 25,5 8,2 24,3 28,7 25,3 16,1 4 2 9 5 N 1015,0 70 60 0,0
25.05.2018 19:00:00 26,4 8,9 27,1 30,7 25,1 16,1 5 3 10 5 ENE 1014,7 70 60 0,0
25.05.2018 18:00:00 26,7 6,2 29,4 31,9 24,6 16,0 6 3 14 8 ESE 1014,8 47 60 0,0
25.05.2018 17:00:00 26,4 5,5 29,3 32,6 24,0 16,0 8 4 16 8 ENE 1015,1 40 60 0,0
25.05.2018 16:00:00 27,1 8,2 31,2 32,6 23,2 16,0 6 3 16 8 NNE 1015,1 45 60 0,0
25.05.2018 15:00:00 24,8 9,1 29,5 31,8 22,3 16,0 9 5 16 9 E 1015,7 41 60 0,0
25.05.2018 14:00:00 24,9 8,8 29,1 30,5 21,4 16,0 8 5 14 7 ESE 1016,0 42 60 0,0
25.05.2018 13:00:00 23,7 11,4 28,3 29,4 20,4 16,0 5 3 12 6 NNE 1016,5 41 60 0,0
25.05.2018 12:00:00 22,8 12,8 27,7 26,7 19,6 15,9 4 2 11 6 ENE 1016,8 45 60 0,0
25.05.2018 11:00:00 20,9 12,1 24,3 23,4 19,0 15,9 5 3 12 6 S 1017,3 51 60 0,0
25.05.2018 10:00:00 19,0 11,4 21,9 19,7 18,9 15,9 5 3 13 7 E 1017,6 48 60 0,0
25.05.2018 09:00:00 17,9 13,1 16,6 17,0 19,0 15,9 4 2 9 5 ENE 1017,7 45 60 0,0
25.05.2018 08:00:00 15,3 12,2 14,9 17,2 19,2 15,9 3 2 4 2 SSW 1018,2 48 60 0,0
25.05.2018 07:00:00 13,4 12,1 12,5 16,3 19,5 15,8 5 3 6 4 NNE 1018,4 31 55 0,0
25.05.2018 06:00:00 12,6 11,3 11,3 16,5 19,9 15,8 3 2 5 3 WNW 1018,6 39 0 0,0
25.05.2018 05:00:00 13,1 11,8 11,5 17,0 20,3 15,8 4 2 9 5 N 1018,5 43 0 0,0
25.05.2018 04:00:00 13,4 11,7 11,9 17,6 20,7 15,8 4 2 6 4 NNW 1018,5 64 0 0,0
25.05.2018 03:00:00 13,9 11,7 12,2 18,2 21,2 15,8 4 2 6 3 N 1018,5 70 0 0,0
25.05.2018 02:00:00 14,5 11,8 12,7 18,9 21,6 15,8 4 2 6 3 NNE 1018,4 70 0 0,0
25.05.2018 01:00:00 15,2 11,9 13,5 19,7 22,1 15,7 7 4 9 5 N 1018,2 70 0 0,0
25.05.2018 00:00:00 15,8 11,6 14,4 20,6 22,6 15,7 8 4 10 5 N 1017,8 70 0 0,0
24.05.2018 23:00:00 17,2 11,5 15,3 21,8 23,0 15,7 6 3 16 8 NNE 1017,6 70 0 0,0
24.05.2018 22:00:00 18,4 12,5 17,3 23,1 23,4 15,7 5 3 19 11 NNE 1017,0 70 0 0,0
24.05.2018 21:00:00 20,2 11,8 19,3 24,7 23,6 15,7 5 3 8 4 E 1015,9 70 28 0,0
24.05.2018 20:00:00 22,6 10,7 22,2 26,9 23,6 15,7 5 3 12 7 ESE 1015,0 70 60 0,0
24.05.2018 19:00:00 23,6 11,1 25,1 28,8 23,4 15,7 7 4 11 6 E 1014,6 65 59 0,0
24.05.2018 18:00:00 23,5 11,7 26,0 30,0 22,9 15,6 6 3 14 7 E 1014,6 54 59 0,0
24.05.2018 17:00:00 23,6 12,2 27,4 30,4 22,2 15,6 7 4 14 8 NE 1014,7 41 60 0,0
24.05.2018 16:00:00 22,2 12,5 26,2 29,9 21,4 15,6 10 6 16 8 E 1015,3 48 56 0,0
24.05.2018 15:00:00 23,0 14,3 26,2 28,6 20,6 15,6 9 5 16 9 E 1015,6 45 52 0,0
24.05.2018 14:00:00 22,3 13,5 27,0 26,7 19,9 15,6 7 4 14 8 E 1016,3 35 48 0,0
24.05.2018 13:00:00 19,6 12,3 23,8 23,9 19,4 15,6 4 2 13 7 E 1017,5 34 21 0,0
24.05.2018 12:00:00 20,0 13,6 25,7 22,2 19,1 15,5 6 3 15 8 W 1017,9 42 19 0,0
24.05.2018 11:00:00 17,7 12,9 20,0 20,4 18,9 15,5 8 4 13 7 W 1018,4 33 3 0,0
24.05.2018 10:00:00 17,2 13,0 19,3 19,1 18,8 15,5 6 3 12 6 W 1018,6 32 0 0,0
24.05.2018 09:00:00 16,6 12,3 18,0 18,5 18,9 15,5 7 4 12 7 W 1018,7 35 3 0,0
24.05.2018 08:00:00 15,6 12,8 16,5 17,8 19,0 15,5 5 3 9 5 W 1018,5 25 0 0,0
24.05.2018 07:00:00 15,5 13,0 15,7 17,5 19,3 15,5 6 3 10 6 SW 1018,3 28 0 0,0
24.05.2018 06:00:00 15,0 13,2 14,8 17,3 19,5 15,4 2 1 16 8 SW 1017,9 21 0 0,0
24.05.2018 05:00:00 15,3 13,2 14,5 17,8 19,8 15,4 8 5 16 9 W 1017,7 24 0 0,0
24.05.2018 04:00:00 15,6 13,0 15,4 18,2 20,2 15,4 10 6 17 9 W 1017,6 33 0 0,0
24.05.2018 03:00:00 15,8 13,0 15,6 18,6 20,5 15,4 10 5 22 12 WSW 1017,9 41 0 0,0
24.05.2018 02:00:00 16,6 13,3 15,5 19,3 20,8 15,4 9 5 20 11 WSW 1017,9 44 0 0,1
24.05.2018 01:00:00 17,0 13,3 15,4 20,0 21,2 15,4 9 5 18 10 WSW 1017,2 38 0 0,0
24.05.2018 00:00:00 17,3 13,1 17,0 20,6 21,5 15,4 4 2 13 7 N 1016,8 54 0 0,0
23.05.2018 23:00:00 17,7 12,6 17,2 21,4 21,8 15,4 9 5 28 15 N 1016,5 70 0 0,0
23.05.2018 22:00:00 19,7 12,9 19,4 22,4 22,1 15,3 11 6 19 11 N 1015,8 70 0 0,0
23.05.2018 21:00:00 20,9 12,0 20,0 23,8 22,3 15,3 6 4 11 6 N 1015,1 70 22 0,0
23.05.2018 20:00:00 23,0 10,7 22,6 25,5 22,2 15,3 7 4 12 7 NW 1014,3 70 60 0,0
23.05.2018 19:00:00 23,6 10,5 25,0 27,3 21,9 15,3 4 2 10 5 N 1013,9 70 60 0,0
23.05.2018 18:00:00 23,4 11,3 25,9 28,2 21,4 15,3 4 2 11 6 NE 1014,1 59 58 0,0
23.05.2018 17:00:00 23,1 11,4 27,1 28,7 20,7 15,3 5 3 11 6 NE 1014,4 52 60 0,0
23.05.2018 16:00:00 22,8 11,2 26,7 28,0 19,9 15,3 6 3 11 6 ESE 1014,8 67 54 0,0
23.05.2018 15:00:00 22,0 10,1 27,0 26,7 19,1 15,3 4 2 14 7 N 1015,6 43 60 0,0
23.05.2018 14:00:00 20,2 11,5 23,9 24,3 18,5 15,2 5 3 13 7 NNW 1016,5 70 33 0,0
23.05.2018 13:00:00 18,8 11,2 22,9 21,9 18,1 15,2 6 3 14 7 W 1017,0 70 2 0,0
23.05.2018 12:00:00 18,0 11,6 20,9 20,8 17,8 15,2 7 4 17 9 NNW 1017,5 65 28 0,0
23.05.2018 11:00:00 16,8 12,0 18,6 18,1 17,6 15,2 5 3 10 5 NW 1017,5 62 0 0,0
23.05.2018 10:00:00 15,9 11,9 16,5 17,3 17,6 15,2 4 2 8 5 NNW 1017,6 70 0 0,0
23.05.2018 09:00:00 15,3 12,5 15,7 16,9 17,7 15,2 0 0 8 4 N 1017,3 52 0 0,0
23.05.2018 08:00:00 15,2 12,3 15,2 16,4 17,8 15,2 4 2 12 7 NW 1016,6 63 0 0,0
23.05.2018 07:00:00 14,6 12,0 14,7 16,2 18,0 15,1 6 3 13 7 WSW 1016,3 42 0 0,0
23.05.2018 06:00:00 14,1 11,9 13,7 16,1 18,3 15,1 6 4 11 6 WSW 1016,0 43 0 0,0
23.05.2018 05:00:00 14,1 12,1 12,9 16,3 18,5 15,1 0 0 9 5 N 1015,7 51 0 0,0
23.05.2018 04:00:00 14,5 12,5 13,8 16,7 18,8 15,1 5 3 13 7 W 1015,2 40 0 0,0
23.05.2018 03:00:00 15,0 12,0 14,5 17,1 19,1 15,1 5 3 22 12 NW 1015,3 70 0 0,0
23.05.2018 02:00:00 15,5 12,4 15,0 17,4 19,4 15,1 10 5 22 12 W 1015,2 64 0 0,0
23.05.2018 01:00:00 15,9 11,8 15,4 17,9 19,8 15,1 12 6 23 13 W 1014,9 70 0 0,0
23.05.2018 00:00:00 16,4 10,8 15,8 18,4 20,1 15,1 6 3 11 6 WSW 1014,4 70 0 0,0
22.05.2018 23:00:00 16,6 10,4 15,0 19,1 20,5 15,1 5 3 6 4 WSW 1014,0 70 0 0,0
22.05.2018 22:00:00 16,8 10,5 15,6 19,8 20,9 15,1 3 1 18 10 SSW 1012,8 70 0 0,0
22.05.2018 21:00:00 17,6 10,6 16,9 21,1 21,3 15,1 14 8 25 13 NNE 1011,7 70 0 0,0
22.05.2018 20:00:00 19,0 10,6 18,5 22,5 21,5 15,0 14 8 31 17 N 1011,1 70 0 0,0
22.05.2018 19:00:00 19,9 9,6 20,0 24,5 21,5 15,0 19 10 38 21 N 1010,5 70 0 0,0
22.05.2018 18:00:00 22,3 10,4 22,6 28,0 21,0 15,0 11 6 19 10 NNE 1009,5 70 53 0,0
22.05.2018 17:00:00 23,9 8,9 26,9 28,6 20,3 15,0 8 5 16 8 E 1009,1 46 60 0,0
22.05.2018 16:00:00 23,2 11,5 27,2 27,2 19,6 15,0 10 5 18 10 E 1009,5 39 60 0,0
22.05.2018 15:00:00 23,7 11,9 28,7 25,6 18,9 15,0 8 4 14 8 SSE 1009,8 48 60 0,0
22.05.2018 14:00:00 23,5 12,3 26,5 25,5 18,2 15,0 7 4 14 8 E 1009,9 25 60 0,0
22.05.2018 13:00:00 22,3 11,9 26,0 24,4 17,4 15,0 9 5 16 8 SSW 1010,5 36 56 0,0
22.05.2018 12:00:00 20,3 13,3 23,0 21,8 16,9 15,0 6 3 13 7 E 1011,1 41 60 0,0
22.05.2018 11:00:00 18,9 12,1 21,7 20,6 16,4 15,0 4 2 11 6 E 1011,5 49 60 0,0
22.05.2018 10:00:00 17,9 11,5 20,7 17,5 16,2 15,0 4 2 9 5 SE 1011,9 52 60 0,0
22.05.2018 09:00:00 16,2 10,9 15,3 14,9 16,2 15,0 4 2 8 5 SW 1012,2 38 60 0,0
22.05.2018 08:00:00 14,0 10,8 13,5 14,7 16,4 14,9 4 2 7 4 W 1012,6 43 60 0,0
22.05.2018 07:00:00 12,3 10,9 11,2 13,7 16,6 14,9 5 3 8 4 NNE 1012,5 37 29 0,0
22.05.2018 06:00:00 12,1 10,5 9,9 13,9 16,9 14,9 5 3 6 4 WNW 1012,1 39 0 0,0
22.05.2018 05:00:00 12,3 10,7 10,5 14,4 17,2 14,9 4 2 7 4 N 1011,9 56 0 0,0
22.05.2018 04:00:00 13,1 10,7 10,9 14,8 17,6 14,9 5 3 8 4 WSW 1011,5 52 0 0,0
22.05.2018 03:00:00 13,4 10,9 11,7 15,4 17,9 14,9 2 1 8 4 W 1011,8 64 0 0,0
22.05.2018 02:00:00 14,1 11,2 12,2 16,0 18,2 14,9 4 2 6 3 NNW 1011,7 67 0 0,0
22.05.2018 01:00:00 15,2 11,5 13,3 16,4 18,6 14,9 5 3 12 7 W 1011,8 70 0 0,0
22.05.2018 00:00:00 16,3 10,7 14,1 17,1 19,0 14,9 8 4 11 6 NW 1011,6 44 0 0,0
21.05.2018 23:00:00 17,8 9,8 15,4 18,0 19,3 14,9 5 3 21 12 NW 1011,2 27 0 0,0
21.05.2018 22:00:00 18,6 10,2 17,6 18,8 19,7 14,9 9 5 26 14 NE 1011,2 70 0 0,0
21.05.2018 21:00:00 19,2 11,1 18,3 19,8 20,0 14,9 9 5 23 12 NNE 1010,8 18 0 0,0
21.05.2018 20:00:00 21,1 9,6 19,5 21,1 20,2 14,9 4 2 16 9 SSE 1010,4 70 0 0,0
21.05.2018 19:00:00 23,3 6,1 21,9 23,0 20,2 14,9 5 3 11 6 S 1009,3 70 35 0,0
21.05.2018 18:00:00 25,1 4,7 26,1 25,4 20,0 14,9 7 4 12 6 SE 1009,4 27 58 0,0
21.05.2018 17:00:00 25,1 6,0 25,5 25,7 19,6 14,9 6 3 18 10 NNE 1009,6 23 58 0,0
21.05.2018 16:00:00 24,7 7,6 26,6 26,3 19,0 14,9 6 4 16 9 NE 1010,2 28 60 0,0
21.05.2018 15:00:00 23,1 6,2 26,0 26,3 18,2 14,9 9 5 13 7 NE 1011,1 24 60 0,0
21.05.2018 14:00:00 22,7 13,3 25,0 25,8 17,4 14,9 6 4 12 7 NE 1011,6 23 60 0,0
21.05.2018 13:00:00 20,6 12,2 24,3 24,2 16,6 14,9 8 4 14 8 E 1012,6 25 60 0,0
21.05.2018 12:00:00 19,1 11,5 22,8 22,3 15,8 14,9 6 4 14 8 ENE 1013,4 28 60 0,0
21.05.2018 11:00:00 17,4 11,0 20,7 19,8 15,2 14,9 5 3 14 8 E 1013,9 31 60 0,0
21.05.2018 10:00:00 16,5 11,2 19,0 16,4 15,0 14,9 8 4 12 6 E 1014,4 28 59 0,0
21.05.2018 09:00:00 15,6 11,1 14,0 13,6 15,0 14,9 4 2 8 4 N 1014,8 26 60 0,0
21.05.2018 08:00:00 13,6 11,1 12,0 13,4 15,1 14,9 4 2 7 4 W 1015,1 14 60 0,0
21.05.2018 07:00:00 12,2 11,0 11,1 12,9 15,3 14,9 3 1 8 4 NNW 1015,2 14 51 0,0

tt = Température de l'air
td = dewpoint
tt 5cm = Température de l'air 5cm
tt -5cm = Température de l'air -5cm
tt -20cm = Température de l'air -20cm
tt -100cm = Température de l'air -100cm
ff = Vitesse du vent
fx = gusts
dd = Direction du vent
ppp = reduced air pressure
vv = visibility
sd = Ensoleillement
rr = Quantités de précipitations

stations d'obs. à proximité